When you browse on this site, cookies collect data to enhance your experience and personalize the content and advertising you see.
Visit our Privacy Policy to learn more. By continuing to use the site, you agree to this use of cookies and data.
  • In Germany
  • List of Countries
  • For 7 days
  • Water Temperature
  • Satellite Maps
  • Weather Map
  • Weather Widgets
  • user-avatar
    Login

    Hourly Weather Nayarit

    Today, 16 December, Sunday

    Time Temperature Precipitation Wind Pressure Humidity
    00:00 +21°C° 0 mm 1 mps 744 mmHg 26%
    01:00 +20°C° 0 mm 1 mps 744 mmHg 25%
    02:00 +20°C° 0 mm 1 mps 744 mmHg 25%
    03:00 +20°C° 0 mm 1 mps 745 mmHg 25%
    04:00 +20°C° 0 mm 1 mps 745 mmHg 26%
    05:00 +18°C° 0 mm 2 mps 745 mmHg 26%
    06:00 +19°C° 0 mm 2 mps 745 mmHg 26%
    07:00 +20°C° 0 mm 2 mps 745 mmHg 27%
    08:00 +23°C° 0 mm 2 mps 745 mmHg 27%
    09:00 +27°C° 0 mm 1 mps 745 mmHg 23%
    10:00 +31°C° 0 mm 1 mps 745 mmHg 19%
    11:00 +33°C° 0 mm 0 mps 745 mmHg 15%
    12:00 +34°C° 0 mm 1 mps 744 mmHg 15%
    13:00 +34°C° 0 mm 1 mps 743 mmHg 16%
    14:00 +35°C° 0 mm 2 mps 743 mmHg 17%
    15:00 +31°C° 0 mm 2 mps 743 mmHg 23%
    16:00 +29°C° 0 mm 1 mps 743 mmHg 29%
    17:00 +26°C° 0 mm 1 mps 743 mmHg 35%
    18:00 +25°C° 0 mm 1 mps 743 mmHg 36%
    19:00 +23°C° 0 mm 1 mps 743 mmHg 37%
    20:00 +22°C° 0 mm 1 mps 744 mmHg 39%
    21:00 +22°C° 0 mm 1 mps 744 mmHg 39%
    22:00 +21°C° 0 mm 1 mps 744 mmHg 38%
    23:00 +21°C° 0 mm 1 mps 744 mmHg 38%

    Tomorrow, 17 December, Monday

    Time Temperature Precipitation Wind Pressure Humidity
    00:00 +21°C° 0 mm 1 mps 744 mmHg 37%
    01:00 +21°C° 0 mm 1 mps 744 mmHg 37%
    02:00 +21°C° 0 mm 1 mps 744 mmHg 36%
    03:00 +21°C° 0 mm 1 mps 744 mmHg 36%
    04:00 +21°C° 0 mm 1 mps 743 mmHg 36%
    05:00 +20°C° 0 mm 1 mps 743 mmHg 36%
    06:00 +22°C° 0 mm 1 mps 744 mmHg 36%
    07:00 +23°C° 0 mm 1 mps 744 mmHg 35%
    08:00 +24°C° 0 mm 1 mps 744 mmHg 34%
    09:00 +28°C° 0 mm 1 mps 744 mmHg 29%
    10:00 +31°C° 0 mm 1 mps 744 mmHg 25%
    11:00 +33°C° 0 mm 0 mps 744 mmHg 20%
    12:00 +34°C° 0 mm 1 mps 743 mmHg 21%
    13:00 +35°C° 0 mm 2 mps 742 mmHg 22%
    14:00 +34°C° 0 mm 2 mps 742 mmHg 23%
    15:00 +31°C° 0 mm 2 mps 742 mmHg 29%
    16:00 +29°C° 0 mm 1 mps 742 mmHg 34%
    17:00 +27°C° 0 mm 1 mps 742 mmHg 40%
    18:00 +25°C° 0 mm 1 mps 742 mmHg 43%
    19:00 +24°C° 0 mm 1 mps 743 mmHg 46%
    20:00 +22°C° 0 mm 1 mps 743 mmHg 50%
    21:00 +22°C° 0 mm 1 mps 743 mmHg 49%
    22:00 +22°C° 0 mm 1 mps 743 mmHg 49%
    23:00 +22°C° 0 mm 1 mps 744 mmHg 48%

    Day after tomorrow, 18 December, Tuesday

    Time Temperature Precipitation Wind Pressure Humidity
    00:00 +22°C° 0 mm 1 mps 743 mmHg 48%
    01:00 +22°C° 0 mm 1 mps 743 mmHg 47%
    02:00 +22°C° 0 mm 1 mps 743 mmHg 46%
    03:00 +22°C° 0 mm 1 mps 742 mmHg 46%
    04:00 +22°C° 0 mm 1 mps 742 mmHg 46%
    05:00 +21°C° 0 mm 1 mps 742 mmHg 46%
    06:00 +22°C° 0 mm 1 mps 743 mmHg 45%
    07:00 +23°C° 0 mm 1 mps 743 mmHg 44%
    08:00 +24°C° 0 mm 1 mps 743 mmHg 43%
    09:00 +27°C° 0 mm 1 mps 743 mmHg 37%
    10:00 +29°C° 0 mm 1 mps 743 mmHg 31%
    11:00 +32°C° 0 mm 1 mps 743 mmHg 25%
    12:00 +32°C° 0 mm 1 mps 742 mmHg 25%
    13:00 +32°C° 0 mm 2 mps 741 mmHg 26%
    14:00 +32°C° 0 mm 2 mps 740 mmHg 26%
    15:00 +30°C° 0 mm 2 mps 740 mmHg 32%
    16:00 +28°C° 0 mm 1 mps 740 mmHg 38%
    17:00 +26°C° 0 mm 1 mps 740 mmHg 43%
    18:00 +24°C° 0 mm 1 mps 741 mmHg 48%
    19:00 +22°C° 0 mm 1 mps 741 mmHg 53%
    20:00 +21°C° 0 mm 1 mps 742 mmHg 58%
    21:00 +20°C° 0 mm 1 mps 742 mmHg 58%
    22:00 +20°C° 0 mm 1 mps 742 mmHg 58%
    23:00 +20°C° 0 mm 1 mps 742 mmHg 59%

    19 December, Wednesday

    Time Temperature Precipitation Wind Pressure Humidity
    00:00 +19°C° 0 mm 1 mps 742 mmHg 58%
    01:00 +19°C° 0 mm 1 mps 742 mmHg 58%
    02:00 +19°C° 0 mm 1 mps 741 mmHg 58%
    03:00 +19°C° 0 mm 1 mps 741 mmHg 58%
    04:00 +18°C° 0 mm 1 mps 741 mmHg 58%
    05:00 +18°C° 0 mm 1 mps 741 mmHg 57%
    06:00 +19°C° 0 mm 1 mps 742 mmHg 54%
    07:00 +21°C° 0 mm 1 mps 742 mmHg 51%
    08:00 +22°C° 0 mm 1 mps 742 mmHg 48%
    09:00 +26°C° 0 mm 1 mps 742 mmHg 39%
    10:00 +29°C° 0 mm 1 mps 742 mmHg 31%
    11:00 +31°C° 0 mm 0 mps 742 mmHg 22%
    12:00 +33°C° 0 mm 1 mps 741 mmHg 22%
    13:00 +32°C° 0 mm 2 mps 740 mmHg 22%
    14:00 +32°C° 0 mm 2 mps 739 mmHg 21%
    15:00 +30°C° 0 mm 2 mps 739 mmHg 28%
    16:00 +28°C° 0 mm 2 mps 739 mmHg 35%
    17:00 +26°C° 0 mm 1 mps 739 mmHg 42%
    18:00 +24°C° 0 mm 1 mps 740 mmHg 46%
    19:00 +22°C° 0 mm 1 mps 741 mmHg 51%
    20:00 +20°C° 0 mm 1 mps 741 mmHg 55%
    21:00 +20°C° 0 mm 1 mps 742 mmHg 53%
    22:00 +20°C° 0 mm 1 mps 742 mmHg 51%
    23:00 +20°C° 0 mm 1 mps 742 mmHg 50%

    20 December, Thursday

    Time Temperature Precipitation Wind Pressure Humidity
    00:00 +20°C° 0 mm 1 mps 742 mmHg 48%
    01:00 +19°C° 0 mm 2 mps 742 mmHg 45%
    02:00 +18°C° 0 mm 2 mps 742 mmHg 43%
    03:00 +18°C° 0 mm 2 mps 742 mmHg 42%
    04:00 +18°C° 0 mm 2 mps 742 mmHg 41%
    05:00 +18°C° 0 mm 2 mps 742 mmHg 39%
    06:00 +19°C° 0 mm 2 mps 743 mmHg 38%
    07:00 +20°C° 0 mm 2 mps 743 mmHg 36%
    08:00 +21°C° 0 mm 2 mps 744 mmHg 35%
    09:00 +26°C° 0 mm 2 mps 744 mmHg 28%
    10:00 +30°C° 0 mm 1 mps 743 mmHg 22%
    11:00 +34°C° 0 mm 1 mps 743 mmHg 16%
    12:00 +34°C° 0 mm 1 mps 742 mmHg 15%
    13:00 +35°C° 0 mm 1 mps 742 mmHg 14%
    14:00 +36°C° 0 mm 1 mps 741 mmHg 13%
    15:00 +33°C° 0 mm 1 mps 741 mmHg 19%
    16:00 +30°C° 0 mm 1 mps 741 mmHg 26%
    17:00 +27°C° 0 mm 1 mps 741 mmHg 33%
    18:00 +26°C° 0 mm 1 mps 741 mmHg 36%
    19:00 +24°C° 0 mm 1 mps 742 mmHg 39%
    20:00 +22°C° 0 mm 1 mps 742 mmHg 42%
    21:00 +22°C° 0 mm 1 mps 743 mmHg 39%
    22:00 +21°C° 0 mm 1 mps 743 mmHg 36%
    23:00 +20°C° 0 mm 2 mps 743 mmHg 33%

    21 December, Friday

    Time Temperature Precipitation Wind Pressure Humidity
    00:00 +20°C° 0 mm 2 mps 743 mmHg 31%
    01:00 +20°C° 0 mm 2 mps 742 mmHg 29%
    02:00 +19°C° 0 mm 2 mps 742 mmHg 27%
    03:00 +19°C° 0 mm 2 mps 742 mmHg 27%
    04:00 +19°C° 0 mm 2 mps 742 mmHg 27%
    05:00 +18°C° 0 mm 2 mps 743 mmHg 27%
    06:00 +19°C° 0 mm 2 mps 743 mmHg 26%
    07:00 +20°C° 0 mm 2 mps 744 mmHg 26%
    08:00 +21°C° 0 mm 2 mps 744 mmHg 26%
    09:00 +27°C° 0 mm 1 mps 744 mmHg 22%
    10:00 +31°C° 0 mm 1 mps 744 mmHg 17%
    11:00 +35°C° 0 mm 1 mps 743 mmHg 13%
    12:00 +35°C° 0 mm 1 mps 742 mmHg 13%
    13:00 +36°C° 0 mm 1 mps 742 mmHg 13%
    14:00 +36°C° 0 mm 1 mps 741 mmHg 13%
    15:00 +33°C° 0 mm 1 mps 741 mmHg 20%
    16:00 +30°C° 0 mm 1 mps 741 mmHg 26%
    17:00 +28°C° 0 mm 1 mps 741 mmHg 33%
    18:00 +26°C° 0 mm 1 mps 741 mmHg 38%
    19:00 +24°C° 0 mm 1 mps 742 mmHg 43%
    20:00 +22°C° 0 mm 1 mps 743 mmHg 48%
    21:00 +21°C° 0 mm 1 mps 743 mmHg 46%
    22:00 +21°C° 0 mm 1 mps 743 mmHg 45%
    23:00 +21°C° 0 mm 1 mps 743 mmHg 44%
    Show more